User: anonymous   Login
Location: Unspecified
(0.0000°N, 0.0000°E)
Time: 19:31:44
(UTC+00:00)
Language:

ONEWEB-0652 - Orbit

View from above orbital plane
View from above orbital plane
View from above satellite
View from above satellite

Ground track
Ground track

The orbit is defined by the following mean orbital elements,

1 55814U          26145.41026170 +.00000000 +00000-0 +54294-3 0 00002
2 55814  87.8935 294.2541 0001934 100.3213 259.8135 13.14503466    05
Epoch (UTC): 25 May 2026 09:50:46
Eccentricity: 0.0001934
inclination: 87.8935°
perigee height: 1204 km
apogee height: 1207 km
right ascension of ascending node: 294.2541°
argument of perigee: 100.3213°
revolutions per day: 13.14503466
mean anomaly at epoch: 259.8135°

The dashed part of the orbit path shows where the satellite is in the earth's shadow,  

DLR